Weather History for KENW - December, 2012

Change the Weather History Date:

Wednesday, December 19, 2012

  Actual Average Record
Temperature  
Mean Temperature 34 °F -  
Max Temperature 39 °F 33 °F 54 °F (1988)
Min Temperature 28 °F 19 °F -20 °F (1983)
Degree Days  
Heating Degree Days 32    
Moisture  
Dew Point 29 °F    
Average Humidity 83    
Maximum Humidity 93    
Minimum Humidity 73    
Precipitation  
Precipitation 0.10 in - - ()
Sea Level Pressure  
Sea Level Pressure 29.98 in    
Wind  
Wind Speed 8 mph (NNW)    
Max Wind Speed 17 mph    
Max Gust Speed 24 mph    
Visibility 4 miles    
Events Rain    
Averages and records for this station are not official NWS values.
T = Trace of Precipitation, MM = Missing Value Source: NWS Daily Summary

Daily Weather History Graph

Daily Weather History Graph

Search for Another Location

Airport or City:

Trip Planner

Search our weather history database for the weather conditions in past years. The results will help you decide how hot, cold, wet, or windy it might be!

Date:

Astronomy

Dec. 19, 2012 Rise Set
Actual Time 7:17 AM CST 4:20 PM CST
Civil Twilight 6:45 AM CST 4:52 PM CST
Nautical Twilight 6:09 AM CST 5:28 PM CST
Astronomical Twilight 5:35 AM CST 6:02 PM CST
Moon 11:17 AM CST (12/19) 11:57 PM CST (12/19)
Length of Visible Light 10h 07m
Length of Day
9h 03m
Waxing Crescent, 45% of the Moon is Illuminated
Dec 19
Waxing Crescent
Dec 19
First Quarter
Dec 28
Full
Jan 4
Last Quarter
Jan 11
New

Hourly Weather History & Observations

Time (CST) Temp. Windchill Dew Point Humidity Pressure Visibility Wind Dir Wind Speed Gust Speed Precip Events Conditions
12:43 AM 33.8 °F 27.0 °F 30.2 °F 87% 29.83 in 4.0 mi WNW 8.1 mph - N/A   Overcast
12:53 AM 34.0 °F 26.6 °F 30.9 °F 89% 29.85 in 4.0 mi WNW 9.2 mph - N/A   Overcast
1:29 AM 33.8 °F 25.8 °F 30.2 °F 87% 29.86 in 4.0 mi NW 10.4 mph - N/A   Mostly Cloudy
1:38 AM 33.8 °F 26.4 °F 30.2 °F 87% 29.86 in 4.0 mi WNW 9.2 mph - N/A   Overcast
1:53 AM 33.1 °F 26.1 °F 30.0 °F 89% 29.90 in 3.0 mi NW 8.1 mph - N/A   Overcast
2:26 AM 32.0 °F 24.8 °F 30.2 °F 93% 29.89 in 2.5 mi WNW 8.1 mph - N/A   Overcast
2:41 AM 32.0 °F 24.8 °F 28.4 °F 87% 29.89 in 3.0 mi WNW 8.1 mph - N/A   Overcast
2:53 AM 32.0 °F 24.2 °F 28.9 °F 88% 29.91 in 3.0 mi NW 9.2 mph - N/A   Overcast
3:26 AM 30.2 °F 22.6 °F 28.4 °F 93% 29.91 in 3.0 mi WNW 8.1 mph - N/A   Overcast
3:53 AM 30.9 °F 22.2 °F 28.0 °F 89% 29.94 in 3.0 mi NW 10.4 mph - N/A   Overcast
4:38 AM 30.2 °F 24.3 °F 26.6 °F 86% 29.91 in 4.0 mi NW 5.8 mph - N/A   Scattered Clouds
4:53 AM 30.0 °F 23.2 °F 26.1 °F 85% 29.95 in 3.0 mi WNW 6.9 mph - N/A   Clear
5:53 AM 28.0 °F 20.8 °F 25.0 °F 88% 29.99 in 4.0 mi WSW 6.9 mph - N/A   Clear
6:53 AM 28.0 °F 21.7 °F 25.0 °F 88% 30.02 in 4.0 mi West 5.8 mph - N/A   Clear
7:53 AM 28.9 °F 23.9 °F 25.0 °F 85% 30.05 in 3.0 mi WSW 4.6 mph - N/A   Clear
8:53 AM 30.0 °F - 26.1 °F 85% 30.05 in 3.0 mi Calm Calm - N/A   Clear
9:53 AM 30.9 °F 27.5 °F 27.0 °F 85% 30.06 in 3.0 mi WNW 3.5 mph - N/A   Clear
10:53 AM 33.1 °F 30.0 °F 27.0 °F 78% 30.07 in 4.0 mi WNW 3.5 mph - N/A   Haze
11:53 AM 34.0 °F 31.0 °F 27.0 °F 75% 30.04 in 5.0 mi NNW 3.5 mph - N/A   Haze
12:53 PM 36.0 °F 33.3 °F 28.0 °F 73% 30.05 in 6.0 mi Variable 3.5 mph - N/A   Haze
1:15 PM 35.6 °F 31.7 °F 28.4 °F 75% 30.04 in 5.0 mi SSW 4.6 mph - N/A   Haze
1:53 PM 36.0 °F - 28.0 °F 73% 30.06 in 5.0 mi Calm Calm - N/A   Haze
2:05 PM 35.6 °F - 28.4 °F 75% 30.03 in 5.0 mi Calm Calm - N/A   Haze
2:39 PM 35.6 °F - 28.4 °F 75% 30.03 in 6.0 mi Calm Calm - N/A   Haze
2:53 PM 36.0 °F - 28.0 °F 73% 30.06 in 6.0 mi Calm Calm - N/A   Haze
3:00 PM 35.6 °F 32.8 °F 28.4 °F 75% 30.04 in 6.0 mi South 3.5 mph - N/A   Haze
3:53 PM 35.1 °F 30.1 °F 28.0 °F 76% 30.08 in 6.0 mi SSE 5.8 mph - N/A   Haze
4:53 PM 35.1 °F 32.2 °F 28.0 °F 76% 30.08 in 8.0 mi ESE 3.5 mph - N/A   Overcast
5:53 PM 34.0 °F 28.0 °F 28.9 °F 82% 30.06 in 6.0 mi ENE 6.9 mph - N/A   Haze
6:01 PM 33.8 °F 28.6 °F 28.4 °F 81% 30.04 in 6.0 mi ENE 5.8 mph - N/A   Haze
6:53 PM 35.1 °F 30.1 °F 28.9 °F 78% 30.05 in 6.0 mi ENE 5.8 mph - N/A   Haze
7:53 PM 36.0 °F 29.6 °F 30.9 °F 82% 30.04 in 7.0 mi ENE 8.1 mph - N/A   Overcast
8:53 PM 37.0 °F 29.3 °F 33.1 °F 86% 30.01 in 6.0 mi ENE 11.5 mph - 0.00 in   Overcast
9:53 PM 37.9 °F 28.9 °F 35.1 °F 89% 29.94 in 5.0 mi East 16.1 mph - 0.01 in Rain Light Rain
10:23 PM 39.2 °F 31.2 °F 35.6 °F 87% 29.93 in 6.0 mi East 13.8 mph - 0.00 in   Overcast
10:53 PM 39.9 °F 31.1 °F 36.0 °F 86% 29.91 in 4.0 mi East 17.3 mph - 0.01 in Rain Light Rain
11:07 PM 39.2 °F 30.2 °F 37.4 °F 93% 29.88 in 2.5 mi East 17.3 mph 24.2 mph 0.04 in Rain Rain
11:34 PM 39.2 °F 30.8 °F 35.6 °F 87% 29.87 in 3.0 mi East 15.0 mph 23.0 mph 0.07 in Rain Light Rain
11:53 PM 39.0 °F 29.9 °F 35.1 °F 86% 29.86 in 4.0 mi East 17.3 mph - 0.08 in Rain Light Rain